Parkersburg, WV

1:57 PM EST on December 02, 2016 (GMT -0500)
Wood County Wilson

Weather History for KPKB - April, 2014

Change the Weather History Date:

Tuesday, April 15, 2014

  Actual Average Record
Temperature  
Mean Temperature 48 °F 54 °F  
Max Temperature 67 °F 66 °F 84 °F (2002)
Min Temperature 29 °F 42 °F 25 °F (1935)
Degree Days  
Heating Degree Days 17 11  
Month to date heating degree days 141 205  
Since 1 July heating degree days 4489 4666  
Cooling Degree Days 0 1  
Month to date cooling degree days 5 5  
Year to date cooling degree days 5 8  
Moisture  
Dew Point 33 °F    
Average Humidity 72    
Maximum Humidity 92    
Minimum Humidity 51    
Precipitation  
Precipitation 0.32 in 0.10 in 0.32 in (2014)
Month to date precipitation 1.96 1.62  
Year to date precipitation 7.37 11.00  
Sea Level Pressure  
Sea Level Pressure 29.92 in    
Wind  
Wind Speed 11 mph (WNW)    
Max Wind Speed 23 mph    
Max Gust Speed 32 mph    
Visibility 7 miles    
Events Fog , Rain , Snow    
T = Trace of Precipitation, MM = Missing Value Source: NWS Daily Summary

Daily Weather History Graph

Daily Weather History Graph

Search for Another Location

Airport or City:

Trip Planner

Search our weather history database for the weather conditions in past years. The results will help you decide how hot, cold, wet, or windy it might be!

Date:

Astronomy

Apr. 15, 2014 Rise Set
Actual Time 6:48 AM EDT 8:03 PM EDT
Civil Twilight 6:21 AM EDT 8:31 PM EDT
Nautical Twilight 5:47 AM EDT 9:04 PM EDT
Astronomical Twilight 5:13 AM EDT 9:39 PM EDT
Moon 8:42 PM EDT (4/15) 6:55 AM EDT (4/15)
Length of Visible Light 14h 10m
Length of Day
13h 14m
Full, 100% of the Moon is Illuminated
Apr 15
Full
Apr 22
Last Quarter
Apr 29
New
May 6
First Quarter
May 14
Full

Hourly Weather History & Observations

Time (EDT) Temp. Windchill Dew Point Humidity Pressure Visibility Wind Dir Wind Speed Gust Speed Precip Events Conditions
12:53 AM 66.0 °F - 52.0 °F 60% 29.64 in 10.0 mi South 8.1 mph - N/A   Overcast
1:53 AM 66.0 °F - 52.0 °F 60% 29.62 in 10.0 mi SSW 8.1 mph - N/A   Overcast
2:53 AM 66.0 °F - 52.0 °F 60% 29.60 in 10.0 mi WNW 15.0 mph 20.7 mph N/A   Overcast
3:12 AM 57.0 °F - 51.1 °F 81% 29.62 in 10.0 mi WNW 20.7 mph 26.5 mph N/A   Overcast
3:35 AM 53.1 °F - 48.0 °F 83% 29.64 in 10.0 mi NW 15.0 mph 24.2 mph N/A   Overcast
3:53 AM 52.0 °F - 46.9 °F 83% 29.64 in 10.0 mi NW 15.0 mph 21.9 mph 0.00 in Rain Light Rain
4:53 AM 46.0 °F 39.0 °F 42.1 °F 86% 29.68 in 5.0 mi WNW 17.3 mph 24.2 mph 0.02 in Rain Light Rain
5:15 AM 45.0 °F 39.3 °F 43.0 °F 93% 29.69 in 4.0 mi WNW 11.5 mph - 0.03 in Rain Light Rain
5:53 AM 43.0 °F 35.1 °F 39.0 °F 86% 29.70 in 10.0 mi WNW 17.3 mph 23.0 mph 0.04 in   Overcast
6:32 AM 39.9 °F 31.4 °F 37.0 °F 89% 29.72 in 4.0 mi WNW 16.1 mph 25.3 mph 0.01 in Rain Light Rain
6:36 AM 39.9 °F 32.1 °F 37.0 °F 89% 29.72 in 3.0 mi NW 13.8 mph 24.2 mph 0.01 in Rain Light Rain
6:53 AM 39.0 °F 30.3 °F 37.0 °F 93% 29.74 in 4.0 mi WNW 16.1 mph 23.0 mph 0.02 in Rain Light Rain
7:53 AM 39.0 °F 32.3 °F 36.0 °F 89% 29.81 in 3.0 mi WNW 10.4 mph 24.2 mph 0.05 in Rain Light Rain
8:49 AM 37.4 °F 29.8 °F 35.6 °F 93% 29.85 in 5.0 mi WNW 11.5 mph 19.6 mph 0.06 in Rain Light Rain
8:53 AM 36.0 °F 27.1 °F 34.0 °F 93% 29.85 in 4.0 mi WNW 13.8 mph 20.7 mph 0.07 in Rain Light Rain
9:53 AM 35.1 °F 29.3 °F 32.0 °F 89% 29.90 in 2.0 mi WNW 6.9 mph - 0.04 in Snow Light Snow
10:53 AM 35.1 °F 27.4 °F 32.0 °F 89% 29.93 in 2.0 mi WNW 10.4 mph - 0.02 in Snow Light Snow
11:53 AM 35.1 °F 27.9 °F 30.9 °F 85% 29.96 in 2.0 mi NW 9.2 mph 19.6 mph 0.01 in Snow Light Snow
12:53 PM 33.1 °F 26.1 °F 30.9 °F 92% 30.00 in 0.8 mi West 8.1 mph - 0.03 in Snow Light Snow
1:07 PM 32.0 °F 21.6 °F 30.9 °F 96% 30.01 in 0.5 mi WNW 15.0 mph 24.2 mph 0.01 in Fog , Snow Snow
1:15 PM 32.0 °F 22.5 °F 30.0 °F 92% 30.02 in 1.0 mi NW 12.7 mph 27.6 mph 0.02 in Snow Light Snow
1:41 PM 34.0 °F 26.0 °F 30.9 °F 89% 29.99 in 3.0 mi NW 10.4 mph - 0.02 in Snow Light Snow
1:53 PM 34.0 °F 26.0 °F 30.9 °F 89% 29.99 in 9.0 mi WNW 10.4 mph - 0.02 in   Overcast
2:01 PM 36.0 °F 29.6 °F 30.9 °F 82% 30.00 in 10.0 mi WNW 8.1 mph - N/A   Overcast
2:53 PM 36.0 °F 28.5 °F 28.9 °F 76% 30.02 in 10.0 mi WNW 10.4 mph 20.7 mph 0.00 in   Overcast
3:53 PM 36.0 °F 28.5 °F 27.0 °F 70% 30.06 in 10.0 mi WNW 10.4 mph 19.6 mph 0.00 in   Mostly Cloudy
4:01 PM 35.1 °F 25.5 °F 26.1 °F 70% 30.04 in 10.0 mi NW 15.0 mph 21.9 mph N/A   Mostly Cloudy
4:08 PM 35.1 °F 26.4 °F 25.0 °F 67% 30.05 in 10.0 mi WNW 12.7 mph 26.5 mph 0.00 in Rain Light Rain
4:44 PM 35.1 °F 25.9 °F 24.1 °F 64% 30.07 in 10.0 mi WNW 13.8 mph - 0.00 in   Overcast
4:53 PM 35.1 °F 26.9 °F 24.1 °F 64% 30.09 in 10.0 mi WNW 11.5 mph 20.7 mph 0.00 in   Overcast
5:53 PM 34.0 °F 26.6 °F 21.9 °F 61% 30.10 in 10.0 mi NW 9.2 mph - N/A   Overcast
6:53 PM 34.0 °F 24.6 °F 19.9 °F 56% 30.14 in 10.0 mi NNW 13.8 mph 24.2 mph N/A   Overcast
7:53 PM 33.1 °F 23.0 °F 18.0 °F 54% 30.17 in 10.0 mi NNW 15.0 mph - N/A   Overcast
8:53 PM 33.1 °F 25.5 °F 17.1 °F 52% 30.21 in 10.0 mi NW 9.2 mph - N/A   Overcast
9:53 PM 32.0 °F 24.2 °F 17.1 °F 54% 30.25 in 10.0 mi NW 9.2 mph - N/A   Overcast
10:53 PM 30.9 °F 24.3 °F 18.0 °F 59% 30.28 in 10.0 mi WNW 6.9 mph - N/A   Scattered Clouds
11:53 PM 30.0 °F 25.2 °F 19.0 °F 64% 30.29 in 10.0 mi NW 4.6 mph - N/A   Clear